| time (UTC) | temp C | wind direction | speed KPH | gust KPH | rain 1hr cm | rain 24hr cm | rain mn cm | humidity % | barometer mb |
| 20260505120024 | 10 | 153 | 0.0 | 0.0 | 0.00 | 0.00 | 0.00 | 93 | 1013.7 |
| 20260505100106 | 10 | 148 | 0.0 | 1.6 | 0.00 | 0.00 | 0.00 | 92 | 1013.1 |
| 20260505091533 | 10 | 141 | 0.0 | 0.0 | 0.00 | 0.00 | 0.00 | 91 | 1012.8 |
| 20260505090021 | 10 | 141 | 0.0 | 0.0 | 0.00 | 0.00 | 0.00 | 90 | 1012.7 |
| 20260505084525 | 10 | 141 | 0.0 | 0.0 | 0.00 | 0.00 | 0.00 | 90 | 1012.6 |
| 20260505083024 | 10 | 141 | 0.0 | 0.0 | 0.00 | 0.00 | 0.00 | 89 | 1012.6 |
| 20260505081540 | 11 | 141 | 0.0 | 1.6 | 0.00 | 0.00 | 0.00 | 89 | 1012.6 |
| 20260505074502 | 11 | 140 | 0.0 | 0.0 | 0.00 | 0.00 | 0.00 | 87 | 1012.3 |
| 20260505073045 | 12 | 141 | 0.0 | 0.0 | 0.00 | 0.00 | 0.00 | 87 | 1012.0 |
| 20260505063053 | 13 | 141 | 0.0 | 0.0 | 0.00 | 0.00 | 0.00 | 84 | 1011.3 |
| 20260505054534 | 14 | 141 | 0.0 | 0.0 | 0.00 | 0.00 | 0.00 | 81 | 1011.1 |
| 20260505053050 | 15 | 141 | 0.0 | 1.6 | 0.00 | 0.00 | 0.00 | 80 | 1011.0 |
| 20260505040050 | 16 | 104 | 0.0 | 1.6 | 0.00 | 0.00 | 0.00 | 76 | 1010.1 |
| 20260505034537 | 17 | 104 | 0.0 | 1.6 | 0.00 | 0.00 | 0.00 | 75 | 1009.9 |
| 20260505033026 | 17 | 96 | 0.0 | 1.6 | 0.00 | 0.00 | 0.00 | 74 | 1009.6 |
| 20260505023043 | 20 | 160 | 0.0 | 0.0 | 0.00 | 0.00 | 0.00 | 70 | 1009.1 |
| 20260505001558 | 22 | 222 | 0.0 | 1.6 | 0.00 | 0.00 | 0.00 | 64 | 1009.4 |
| 20260504234533 | 22 | 163 | 0.0 | 1.6 | 0.00 | 0.00 | 0.00 | 64 | 1009.6 |
| 20260504233005 | 22 | 155 | 0.0 | 1.6 | 0.00 | 0.00 | 0.00 | 63 | 1009.7 |
| 20260504224556 | 22 | 150 | 0.0 | 0.0 | 0.00 | 0.00 | 0.00 | 62 | 1010.0 |
| 20260504223110 | 22 | 317 | 0.0 | 3.2 | 0.00 | 0.00 | 0.00 | 62 | 1010.1 |
| 20260504223020 | 22 | 240 | 0.0 | 3.2 | 0.00 | 0.00 | 0.00 | 62 | 1010.1 |
| 20260504221513 | 22 | 156 | 0.0 | 1.6 | 0.00 | 0.00 | 0.00 | 63 | 1010.3 |
| 20260504213103 | 22 | 168 | 0.0 | 1.6 | 0.00 | 0.00 | 0.00 | 63 | 1010.8 |
| 20260504203046 | 19 | 117 | 0.0 | 1.6 | 0.00 | 0.00 | 0.00 | 70 | 1011.5 |
| 20260504203008 | 19 | 117 | 0.0 | 1.6 | 0.00 | 0.00 | 0.00 | 69 | 1011.5 |
| 20260504194551 | 17 | 175 | 0.0 | 1.6 | 0.00 | 0.00 | 0.00 | 72 | 1011.8 |
| 20260504194528 | 17 | 158 | 0.0 | 1.6 | 0.00 | 0.00 | 0.00 | 72 | 1011.8 |
| 20260504193044 | 17 | 135 | 0.0 | 3.2 | 0.00 | 0.00 | 0.00 | 73 | 1011.8 |
| 20260504173014 | 13 | 163 | 0.0 | 1.6 | 0.00 | 0.00 | 0.00 | 83 | 1012.0 |